Year,Month,Day,Hour,Minute,Value (Times are PST for windspeed in km/hr)
2016,03,09,00,00,3.90
2016,03,09,00,01,0.70
2016,03,09,00,02,0.20
2016,03,09,00,03,2.20
2016,03,09,00,04,0.70
2016,03,09,00,05,1.50
2016,03,09,00,06,0.20
2016,03,09,00,07,0.40
2016,03,09,00,08,1.60
2016,03,09,00,09,1.10
2016,03,09,00,10,1.50
2016,03,09,00,11,1.40
2016,03,09,00,12,0.90
2016,03,09,00,13,0.20
2016,03,09,00,14,0.30
2016,03,09,00,15,1.70
2016,03,09,00,16,3.50
2016,03,09,00,17,1.70
2016,03,09,00,18,3.10
2016,03,09,00,19,3.30
2016,03,09,00,20,3.50
2016,03,09,00,21,2.10
2016,03,09,00,22,2.00
2016,03,09,00,23,1.90
2016,03,09,00,24,1.70
2016,03,09,00,25,2.70
2016,03,09,00,26,0.50
2016,03,09,00,27,1.80
2016,03,09,00,28,2.60
2016,03,09,00,29,2.70
2016,03,09,00,30,2.40
2016,03,09,00,31,1.50
2016,03,09,00,32,1.60
2016,03,09,00,33,1.80
2016,03,09,00,34,1.20
2016,03,09,00,35,1.70
2016,03,09,00,36,0.60
2016,03,09,00,37,1.30
2016,03,09,00,38,4.60
2016,03,09,00,39,2.80
2016,03,09,00,40,2.90
2016,03,09,00,41,4.30
2016,03,09,00,42,3.20
2016,03,09,00,43,3.30
2016,03,09,00,44,2.40
2016,03,09,00,45,2.00
2016,03,09,00,46,3.00
2016,03,09,00,47,3.00
2016,03,09,00,48,1.50
2016,03,09,00,49,0.00
2016,03,09,00,50,0.00
2016,03,09,00,51,0.30
2016,03,09,00,52,0.00
2016,03,09,00,53,0.30
2016,03,09,00,54,0.00
2016,03,09,00,55,1.10
2016,03,09,00,56,0.20
2016,03,09,00,57,0.20
2016,03,09,00,58,2.70
2016,03,09,00,59,2.20
2016,03,09,01,00,2.40
2016,03,09,01,01,0.60
2016,03,09,01,02,1.10
2016,03,09,01,03,1.20
2016,03,09,01,04,3.20
2016,03,09,01,05,2.70
2016,03,09,01,06,0.40
2016,03,09,01,07,4.70
2016,03,09,01,08,1.70
2016,03,09,01,09,1.20
2016,03,09,01,10,0.00
2016,03,09,01,11,1.70
2016,03,09,01,12,1.30
2016,03,09,01,13,0.80
2016,03,09,01,14,1.30
2016,03,09,01,15,0.70
2016,03,09,01,16,0.20
2016,03,09,01,17,1.40
2016,03,09,01,18,2.20
2016,03,09,01,19,1.90
2016,03,09,01,20,1.50
2016,03,09,01,21,2.00
2016,03,09,01,22,1.00
2016,03,09,01,23,1.10
2016,03,09,01,24,0.40
2016,03,09,01,25,0.10
2016,03,09,01,26,0.70
2016,03,09,01,27,0.10
2016,03,09,01,28,0.10
2016,03,09,01,29,0.10
2016,03,09,01,30,0.60
2016,03,09,01,31,0.90
2016,03,09,01,32,0.20
2016,03,09,01,33,0.80
2016,03,09,01,34,0.60
2016,03,09,01,35,0.00
2016,03,09,01,36,0.00
2016,03,09,01,37,0.00
2016,03,09,01,38,0.20
2016,03,09,01,39,1.00
2016,03,09,01,40,1.40
2016,03,09,01,41,1.20
2016,03,09,01,42,2.60
2016,03,09,01,43,2.80
2016,03,09,01,44,1.70
2016,03,09,01,45,0.30
2016,03,09,01,46,0.20
2016,03,09,01,47,3.40
2016,03,09,01,48,1.80
2016,03,09,01,49,2.30
2016,03,09,01,50,0.90
2016,03,09,01,51,2.00
2016,03,09,01,52,1.90
2016,03,09,01,53,2.80
2016,03,09,01,54,1.60
2016,03,09,01,55,1.90
2016,03,09,01,56,1.70
2016,03,09,01,57,3.00
2016,03,09,01,58,3.70
2016,03,09,01,59,3.00
2016,03,09,02,00,3.20
2016,03,09,02,01,5.80
2016,03,09,02,02,4.20
2016,03,09,02,03,3.20
2016,03,09,02,04,2.40
2016,03,09,02,05,3.50
2016,03,09,02,06,3.50
2016,03,09,02,07,4.10
2016,03,09,02,08,2.90
2016,03,09,02,09,4.90
2016,03,09,02,10,4.50
2016,03,09,02,11,2.70
2016,03,09,02,12,4.20
2016,03,09,02,13,3.50
2016,03,09,02,14,3.10
2016,03,09,02,15,2.10
2016,03,09,02,16,3.10
2016,03,09,02,17,3.90
2016,03,09,02,18,2.60
2016,03,09,02,19,2.40
2016,03,09,02,20,2.80
2016,03,09,02,21,2.40
2016,03,09,02,22,1.10
2016,03,09,02,23,0.50
2016,03,09,02,24,0.30
2016,03,09,02,25,3.50
2016,03,09,02,26,6.20
2016,03,09,02,27,3.10
2016,03,09,02,28,2.30
2016,03,09,02,29,1.40
2016,03,09,02,30,2.30
2016,03,09,02,31,2.80
2016,03,09,02,32,1.50
2016,03,09,02,33,1.70
2016,03,09,02,34,1.70
2016,03,09,02,35,0.20
2016,03,09,02,36,0.00
2016,03,09,02,37,0.70
2016,03,09,02,38,2.70
2016,03,09,02,39,2.50
2016,03,09,02,40,1.90
2016,03,09,02,41,2.20
2016,03,09,02,42,1.90
2016,03,09,02,43,0.20
2016,03,09,02,44,2.30
2016,03,09,02,45,3.00
2016,03,09,02,46,3.50
2016,03,09,02,47,3.90
2016,03,09,02,48,5.10
2016,03,09,02,49,3.40
2016,03,09,02,50,3.10
2016,03,09,02,51,4.20
2016,03,09,02,52,4.30
2016,03,09,02,53,3.50
2016,03,09,02,54,2.50
2016,03,09,02,55,3.70
2016,03,09,02,56,2.80
2016,03,09,02,57,6.40
2016,03,09,02,58,5.70
2016,03,09,02,59,3.00
2016,03,09,03,00,3.40
2016,03,09,03,01,4.40
2016,03,09,03,02,3.50
2016,03,09,03,03,3.80
2016,03,09,03,04,5.00
2016,03,09,03,05,3.10
2016,03,09,03,06,4.00
2016,03,09,03,07,5.90
2016,03,09,03,08,6.00
2016,03,09,03,09,6.30
2016,03,09,03,10,6.80
2016,03,09,03,11,8.10
2016,03,09,03,12,2.90
2016,03,09,03,13,5.10
2016,03,09,03,14,2.30
2016,03,09,03,15,6.30
2016,03,09,03,16,2.30
2016,03,09,03,17,5.10
2016,03,09,03,18,4.00
2016,03,09,03,19,3.40
2016,03,09,03,20,5.10
2016,03,09,03,21,4.40
2016,03,09,03,22,4.80
2016,03,09,03,23,7.70
2016,03,09,03,24,3.40
2016,03,09,03,25,1.80
2016,03,09,03,26,5.90
2016,03,09,03,27,6.00
2016,03,09,03,28,4.10
2016,03,09,03,29,6.90
2016,03,09,03,30,12.60
2016,03,09,03,31,5.30
2016,03,09,03,32,6.40
2016,03,09,03,33,4.90
2016,03,09,03,34,7.10
2016,03,09,03,35,4.10
2016,03,09,03,36,6.90
2016,03,09,03,37,7.10
2016,03,09,03,38,6.30
2016,03,09,03,39,4.90
2016,03,09,03,40,8.10
2016,03,09,03,41,7.10
2016,03,09,03,42,2.80
2016,03,09,03,43,5.00
2016,03,09,03,44,6.70
2016,03,09,03,45,6.40
2016,03,09,03,46,6.70
2016,03,09,03,47,9.80
2016,03,09,03,48,7.20
2016,03,09,03,49,4.20
2016,03,09,03,50,4.20
2016,03,09,03,51,2.90
2016,03,09,03,52,7.60
2016,03,09,03,53,8.40
2016,03,09,03,54,8.40
2016,03,09,03,55,4.40
2016,03,09,03,56,5.70
2016,03,09,03,57,6.50
2016,03,09,03,58,5.10
2016,03,09,03,59,4.70
2016,03,09,04,00,7.10
2016,03,09,04,01,6.10
2016,03,09,04,02,5.50
2016,03,09,04,03,3.40
2016,03,09,04,04,3.50
2016,03,09,04,05,5.50
2016,03,09,04,06,5.60
2016,03,09,04,07,7.60
2016,03,09,04,08,4.90
2016,03,09,04,09,6.00
2016,03,09,04,10,6.10
2016,03,09,04,11,7.70
2016,03,09,04,12,4.10
2016,03,09,04,13,5.50
2016,03,09,04,14,6.10
2016,03,09,04,15,6.40
2016,03,09,04,16,7.50
2016,03,09,04,17,4.30
2016,03,09,04,18,8.30
2016,03,09,04,19,8.60
2016,03,09,04,20,5.40
2016,03,09,04,21,5.80
2016,03,09,04,22,6.00
2016,03,09,04,23,5.60
2016,03,09,04,24,4.20
2016,03,09,04,25,3.10
2016,03,09,04,26,4.00
2016,03,09,04,27,3.10
2016,03,09,04,28,6.40
2016,03,09,04,29,3.90
2016,03,09,04,30,4.40
2016,03,09,04,31,3.70
2016,03,09,04,32,4.50
2016,03,09,04,33,4.80
2016,03,09,04,34,4.30
2016,03,09,04,35,4.70
2016,03,09,04,36,6.70
2016,03,09,04,37,3.70
2016,03,09,04,38,4.20
2016,03,09,04,39,4.30
2016,03,09,04,40,2.80
2016,03,09,04,41,1.80
2016,03,09,04,42,2.10
2016,03,09,04,43,3.10
2016,03,09,04,44,3.60
2016,03,09,04,45,3.30
2016,03,09,04,46,3.40
2016,03,09,04,47,5.10
2016,03,09,04,48,5.20
2016,03,09,04,49,3.20
2016,03,09,04,50,2.80
2016,03,09,04,51,2.60
2016,03,09,04,52,2.80
2016,03,09,04,53,2.30
2016,03,09,04,54,3.30
2016,03,09,04,55,0.10
2016,03,09,04,56,0.10
2016,03,09,04,57,0.00
2016,03,09,04,58,0.10
2016,03,09,04,59,1.50
2016,03,09,05,00,1.90
2016,03,09,05,01,1.50
2016,03,09,05,02,1.20
2016,03,09,05,03,0.40
2016,03,09,05,04,0.50
2016,03,09,05,05,3.10
2016,03,09,05,06,2.00
2016,03,09,05,07,0.60
2016,03,09,05,08,0.40
2016,03,09,05,09,0.20
2016,03,09,05,10,1.30
2016,03,09,05,11,0.10
2016,03,09,05,12,0.00
2016,03,09,05,13,0.00
2016,03,09,05,14,0.00
2016,03,09,05,15,0.00
2016,03,09,05,16,1.20
2016,03,09,05,17,0.10
2016,03,09,05,18,1.90
2016,03,09,05,19,3.10
2016,03,09,05,20,3.00
2016,03,09,05,21,3.40
2016,03,09,05,22,3.00
2016,03,09,05,23,4.70
2016,03,09,05,24,2.50
2016,03,09,05,25,3.00
2016,03,09,05,26,2.10
2016,03,09,05,27,0.90
2016,03,09,05,28,0.50
2016,03,09,05,29,2.90
2016,03,09,05,30,2.00
2016,03,09,05,31,3.70
2016,03,09,05,32,1.00
2016,03,09,05,33,2.70
2016,03,09,05,34,2.50
2016,03,09,05,35,1.60
2016,03,09,05,36,1.20
2016,03,09,05,37,2.80
2016,03,09,05,38,1.20
2016,03,09,05,39,0.90
2016,03,09,05,40,6.10
2016,03,09,05,41,5.00
2016,03,09,05,42,5.20
2016,03,09,05,43,2.80
2016,03,09,05,44,4.60
2016,03,09,05,45,5.00
2016,03,09,05,46,4.30
2016,03,09,05,47,3.60
2016,03,09,05,48,5.10
2016,03,09,05,49,6.70
2016,03,09,05,50,6.90
2016,03,09,05,51,5.10
2016,03,09,05,52,5.40
2016,03,09,05,53,5.10
2016,03,09,05,54,3.10
2016,03,09,05,55,1.90
2016,03,09,05,56,5.40
2016,03,09,05,57,3.90
2016,03,09,05,58,4.90
2016,03,09,05,59,6.50
2016,03,09,06,00,8.10
2016,03,09,06,01,3.90
2016,03,09,06,02,3.10
2016,03,09,06,03,4.80
2016,03,09,06,04,8.90
2016,03,09,06,05,5.20
2016,03,09,06,06,2.60
2016,03,09,06,07,1.70
2016,03,09,06,08,2.10
2016,03,09,06,09,3.20
2016,03,09,06,10,3.90
2016,03,09,06,11,1.90
2016,03,09,06,12,2.20
2016,03,09,06,13,11.60
2016,03,09,06,14,7.60
2016,03,09,06,15,5.70
2016,03,09,06,16,6.90
2016,03,09,06,17,8.00
2016,03,09,06,18,4.10
2016,03,09,06,19,6.30
2016,03,09,06,20,5.10
2016,03,09,06,21,5.20
2016,03,09,06,22,7.60
2016,03,09,06,23,8.80
2016,03,09,06,24,4.20
2016,03,09,06,25,2.10
2016,03,09,06,26,2.60
2016,03,09,06,27,4.30
2016,03,09,06,28,5.20
2016,03,09,06,29,3.80
2016,03,09,06,30,5.10
2016,03,09,06,31,4.50
2016,03,09,06,32,8.80
2016,03,09,06,33,5.40
2016,03,09,06,34,7.20
2016,03,09,06,35,7.80
2016,03,09,06,36,5.80
2016,03,09,06,37,6.10
2016,03,09,06,38,10.80
2016,03,09,06,39,5.30
2016,03,09,06,40,5.20
2016,03,09,06,41,6.40
2016,03,09,06,42,9.00
2016,03,09,06,43,6.80
2016,03,09,06,44,6.40
2016,03,09,06,45,4.80
2016,03,09,06,46,6.70
2016,03,09,06,47,8.50
2016,03,09,06,48,7.80
2016,03,09,06,49,7.70
2016,03,09,06,50,5.30
2016,03,09,06,51,7.20
2016,03,09,06,52,5.80
2016,03,09,06,53,4.60
2016,03,09,06,54,8.70
2016,03,09,06,55,7.00
2016,03,09,06,56,7.00
2016,03,09,06,57,6.30
2016,03,09,06,58,6.10
2016,03,09,06,59,8.00
2016,03,09,07,00,5.90
2016,03,09,07,01,5.20
2016,03,09,07,02,5.30
2016,03,09,07,03,5.80
2016,03,09,07,04,5.40
2016,03,09,07,05,11.40
2016,03,09,07,06,7.10
2016,03,09,07,07,3.10
2016,03,09,07,08,7.60
2016,03,09,07,09,11.30
2016,03,09,07,10,5.60
2016,03,09,07,11,5.60
2016,03,09,07,12,2.40
2016,03,09,07,13,5.70
2016,03,09,07,14,4.70
2016,03,09,07,15,6.00
2016,03,09,07,16,4.60
2016,03,09,07,17,10.80
2016,03,09,07,18,12.70
2016,03,09,07,19,7.60
2016,03,09,07,20,12.10
2016,03,09,07,21,15.40
2016,03,09,07,22,8.20
2016,03,09,07,23,3.40
2016,03,09,07,24,5.10
2016,03,09,07,25,6.60
2016,03,09,07,26,7.90
2016,03,09,07,27,8.30
2016,03,09,07,28,6.90
2016,03,09,07,29,6.10
2016,03,09,07,30,3.90
2016,03,09,07,31,7.80
2016,03,09,07,32,10.00
2016,03,09,07,33,7.10
2016,03,09,07,34,5.90
2016,03,09,07,35,7.90
2016,03,09,07,36,7.10
2016,03,09,07,37,7.20
2016,03,09,07,38,5.70
2016,03,09,07,39,8.10
2016,03,09,07,40,6.40
2016,03,09,07,41,7.30
2016,03,09,07,42,6.70
2016,03,09,07,43,5.80
2016,03,09,07,44,6.10
2016,03,09,07,45,7.10
2016,03,09,07,46,6.60
2016,03,09,07,47,8.10
2016,03,09,07,48,4.90
2016,03,09,07,49,4.90
2016,03,09,07,50,5.20
2016,03,09,07,51,3.00
2016,03,09,07,52,5.80
2016,03,09,07,53,6.40
2016,03,09,07,54,6.90
2016,03,09,07,55,4.10
2016,03,09,07,56,6.80
2016,03,09,07,57,6.80
2016,03,09,07,58,8.80
2016,03,09,07,59,5.10
2016,03,09,08,00,3.60
2016,03,09,08,01,3.40
2016,03,09,08,02,5.00
2016,03,09,08,03,8.40
2016,03,09,08,04,5.30
2016,03,09,08,05,8.30
2016,03,09,08,06,9.20
2016,03,09,08,07,6.00
2016,03,09,08,08,3.80
2016,03,09,08,09,6.40
2016,03,09,08,10,6.10
2016,03,09,08,11,7.60
2016,03,09,08,12,9.30
2016,03,09,08,13,3.70
2016,03,09,08,14,12.70
2016,03,09,08,15,12.60
2016,03,09,08,16,4.90
2016,03,09,08,17,5.50
2016,03,09,08,18,5.40
2016,03,09,08,19,3.90
2016,03,09,08,20,3.50
2016,03,09,08,21,6.00
2016,03,09,08,22,8.80
2016,03,09,08,23,7.20
2016,03,09,08,24,7.80
2016,03,09,08,25,5.50
2016,03,09,08,26,6.20
2016,03,09,08,27,3.30
2016,03,09,08,28,3.60
2016,03,09,08,29,4.40
2016,03,09,08,30,3.90
2016,03,09,08,31,3.00
2016,03,09,08,32,2.00
2016,03,09,08,33,7.50
2016,03,09,08,34,4.20
2016,03,09,08,35,4.90
2016,03,09,08,36,5.60
2016,03,09,08,37,5.40
2016,03,09,08,38,0.70
2016,03,09,08,39,0.80
2016,03,09,08,40,0.60
2016,03,09,08,41,2.20
2016,03,09,08,42,4.40
2016,03,09,08,43,3.10
2016,03,09,08,44,4.70
2016,03,09,08,45,5.40
2016,03,09,08,46,5.80
2016,03,09,08,47,3.20
2016,03,09,08,48,2.50
2016,03,09,08,49,1.50
2016,03,09,08,50,1.90
2016,03,09,08,51,0.90
2016,03,09,08,52,6.80
2016,03,09,08,53,6.40
2016,03,09,08,54,2.70
2016,03,09,08,55,3.40
2016,03,09,08,56,3.70
2016,03,09,08,57,4.40
2016,03,09,08,58,3.60
2016,03,09,08,59,3.10
2016,03,09,09,00,3.50
2016,03,09,09,01,3.50
2016,03,09,09,02,4.40
2016,03,09,09,03,3.40
2016,03,09,09,04,1.90
2016,03,09,09,05,1.30
2016,03,09,09,06,4.50
2016,03,09,09,07,3.10
2016,03,09,09,08,1.50
2016,03,09,09,09,1.40
2016,03,09,09,10,4.40
2016,03,09,09,11,5.90
2016,03,09,09,12,5.30
2016,03,09,09,13,3.80
2016,03,09,09,14,5.00
2016,03,09,09,15,6.00
2016,03,09,09,16,4.10
2016,03,09,09,17,4.60
2016,03,09,09,18,2.60
2016,03,09,09,19,2.90
2016,03,09,09,20,1.20
2016,03,09,09,21,2.00
2016,03,09,09,22,4.70
2016,03,09,09,23,3.70
2016,03,09,09,24,4.20
2016,03,09,09,25,6.40
2016,03,09,09,26,7.20
2016,03,09,09,27,7.00
2016,03,09,09,28,2.90
2016,03,09,09,29,2.50
2016,03,09,09,30,2.40
2016,03,09,09,31,1.50
2016,03,09,09,32,4.90
2016,03,09,09,33,5.10
2016,03,09,09,34,5.50
2016,03,09,09,35,3.50
2016,03,09,09,36,5.30
2016,03,09,09,37,10.00
2016,03,09,09,38,6.40
2016,03,09,09,39,6.40
2016,03,09,09,40,4.50
2016,03,09,09,41,5.40
2016,03,09,09,42,5.20
2016,03,09,09,43,8.50
2016,03,09,09,44,7.80
2016,03,09,09,45,6.90
2016,03,09,09,46,7.00
2016,03,09,09,47,7.10
2016,03,09,09,48,5.20
2016,03,09,09,49,2.80
2016,03,09,09,50,3.20
2016,03,09,09,51,3.20
2016,03,09,09,52,5.50
2016,03,09,09,53,7.40
2016,03,09,09,54,7.40
2016,03,09,09,55,6.80
2016,03,09,09,56,6.40
2016,03,09,09,57,7.50
2016,03,09,09,58,5.90
2016,03,09,09,59,5.90
2016,03,09,10,00,13.10
2016,03,09,10,01,6.90
2016,03,09,10,02,6.00
2016,03,09,10,03,12.20
2016,03,09,10,04,4.70
2016,03,09,10,05,14.80
2016,03,09,10,06,15.30
2016,03,09,10,07,10.70
2016,03,09,10,08,5.00
2016,03,09,10,09,7.20
2016,03,09,10,10,6.80
2016,03,09,10,11,5.90
2016,03,09,10,12,6.90
2016,03,09,10,13,7.30
2016,03,09,10,14,7.60
2016,03,09,10,15,5.80
2016,03,09,10,16,7.50
2016,03,09,10,17,11.70
2016,03,09,10,18,10.40
2016,03,09,10,19,7.20
2016,03,09,10,20,10.00
2016,03,09,10,21,8.60
2016,03,09,10,22,12.90
2016,03,09,10,23,9.90
2016,03,09,10,24,9.70
2016,03,09,10,25,8.50
2016,03,09,10,26,7.70
2016,03,09,10,27,9.10
2016,03,09,10,28,7.90
2016,03,09,10,29,4.60
2016,03,09,10,30,12.20
2016,03,09,10,31,16.00
2016,03,09,10,32,13.60
2016,03,09,10,33,9.00
2016,03,09,10,34,6.40
2016,03,09,10,35,8.60
2016,03,09,10,36,11.40
2016,03,09,10,37,6.00
2016,03,09,10,38,4.60
2016,03,09,10,39,13.50
2016,03,09,10,40,7.90
2016,03,09,10,41,8.10
2016,03,09,10,42,12.00
2016,03,09,10,43,13.40
2016,03,09,10,44,9.70
2016,03,09,10,45,9.70
2016,03,09,10,46,4.70
2016,03,09,10,47,12.70
2016,03,09,10,48,6.50
2016,03,09,10,49,2.60
2016,03,09,10,50,6.60
2016,03,09,10,51,9.80
2016,03,09,10,52,10.90
2016,03,09,10,53,7.60
2016,03,09,10,54,9.60
2016,03,09,10,55,10.30
2016,03,09,10,56,15.80
2016,03,09,10,57,8.00
2016,03,09,10,58,11.70
2016,03,09,10,59,9.60
2016,03,09,11,00,15.00
2016,03,09,11,01,9.30
2016,03,09,11,02,9.10
2016,03,09,11,03,8.60
2016,03,09,11,04,4.40
2016,03,09,11,05,12.10
2016,03,09,11,06,7.30
2016,03,09,11,07,10.50
2016,03,09,11,08,7.70
2016,03,09,11,09,7.70
2016,03,09,11,10,7.10
2016,03,09,11,11,4.10
2016,03,09,11,12,5.40
2016,03,09,11,13,9.30
2016,03,09,11,14,7.30
2016,03,09,11,15,13.70
2016,03,09,11,16,18.60
2016,03,09,11,17,8.10
2016,03,09,11,18,6.20
2016,03,09,11,19,10.90
2016,03,09,11,20,8.40
2016,03,09,11,21,19.40
2016,03,09,11,22,16.60
2016,03,09,11,23,14.60
2016,03,09,11,24,9.90
2016,03,09,11,25,17.20
2016,03,09,11,26,12.60
2016,03,09,11,27,13.30
2016,03,09,11,28,16.00
2016,03,09,11,29,13.90
2016,03,09,11,30,10.00
2016,03,09,11,31,8.90
2016,03,09,11,32,7.50
2016,03,09,11,33,5.80
2016,03,09,11,34,4.70
2016,03,09,11,35,9.20
2016,03,09,11,36,14.60
2016,03,09,11,37,11.40
2016,03,09,11,38,10.50
2016,03,09,11,39,7.20
2016,03,09,11,40,9.70
2016,03,09,11,41,7.90
2016,03,09,11,42,3.30
2016,03,09,11,43,3.00
2016,03,09,11,44,8.50
2016,03,09,11,45,10.70
2016,03,09,11,46,9.30
2016,03,09,11,47,9.70
2016,03,09,11,48,5.90
2016,03,09,11,49,7.00
2016,03,09,11,50,8.30
2016,03,09,11,51,13.90
2016,03,09,11,52,15.40
2016,03,09,11,53,11.70
2016,03,09,11,54,16.30
2016,03,09,11,55,8.70
2016,03,09,11,56,8.50
2016,03,09,11,57,12.60
2016,03,09,11,58,9.30
2016,03,09,11,59,10.00
2016,03,09,12,00,3.80
2016,03,09,12,01,4.10
2016,03,09,12,02,9.20
2016,03,09,12,03,13.20
2016,03,09,12,04,4.20
2016,03,09,12,05,7.00
2016,03,09,12,06,5.50
2016,03,09,12,07,8.10
2016,03,09,12,08,5.40
2016,03,09,12,09,5.40
2016,03,09,12,10,5.80
2016,03,09,12,11,13.20
2016,03,09,12,12,9.10
2016,03,09,12,13,10.50
2016,03,09,12,14,8.10
2016,03,09,12,15,4.80
2016,03,09,12,16,5.20
2016,03,09,12,17,5.60
2016,03,09,12,18,6.50
2016,03,09,12,19,6.80
2016,03,09,12,20,7.30
2016,03,09,12,21,7.20
2016,03,09,12,22,8.00
2016,03,09,12,23,10.00
2016,03,09,12,24,6.40
2016,03,09,12,25,5.40
2016,03,09,12,26,8.40
2016,03,09,12,27,11.70
2016,03,09,12,28,4.20
2016,03,09,12,29,8.10
2016,03,09,12,30,10.40
2016,03,09,12,31,9.00
2016,03,09,12,32,8.10
2016,03,09,12,33,8.20
2016,03,09,12,34,4.10
2016,03,09,12,35,6.90
2016,03,09,12,36,4.90
2016,03,09,12,37,8.50
2016,03,09,12,38,6.50
2016,03,09,12,39,4.50
2016,03,09,12,40,5.70
2016,03,09,12,41,7.50
2016,03,09,12,42,2.90
2016,03,09,12,43,3.20
2016,03,09,12,44,3.10
2016,03,09,12,45,2.30
2016,03,09,12,46,2.10
2016,03,09,12,47,2.70
2016,03,09,12,48,5.60
2016,03,09,12,49,2.40
2016,03,09,12,50,2.90
2016,03,09,12,51,1.00
2016,03,09,12,52,1.50
2016,03,09,12,53,1.70
2016,03,09,12,54,3.80
2016,03,09,12,55,1.80
2016,03,09,12,56,2.70
2016,03,09,12,57,3.10
2016,03,09,12,58,2.70
2016,03,09,12,59,4.10
2016,03,09,13,00,1.70
2016,03,09,13,01,1.80
2016,03,09,13,02,2.50
2016,03,09,13,03,3.90
2016,03,09,13,04,3.50
2016,03,09,13,05,4.80
2016,03,09,13,06,3.10
2016,03,09,13,07,2.40
2016,03,09,13,08,3.10
2016,03,09,13,09,3.10
2016,03,09,13,10,9.60
2016,03,09,13,11,8.90
2016,03,09,13,12,8.30
2016,03,09,13,13,6.70
2016,03,09,13,14,8.80
2016,03,09,13,15,9.70
2016,03,09,13,16,7.70
2016,03,09,13,17,10.70
2016,03,09,13,18,13.00
2016,03,09,13,19,9.90
2016,03,09,13,20,8.10
2016,03,09,13,21,7.50
2016,03,09,13,22,9.00
2016,03,09,13,23,3.90
2016,03,09,13,24,2.10
2016,03,09,13,25,3.70
2016,03,09,13,26,4.00
2016,03,09,13,27,3.50
2016,03,09,13,28,6.00
2016,03,09,13,29,7.50
2016,03,09,13,30,10.70
2016,03,09,13,31,7.30
2016,03,09,13,32,5.80
2016,03,09,13,33,4.00
2016,03,09,13,34,6.70
2016,03,09,13,35,3.90
2016,03,09,13,36,7.00
2016,03,09,13,37,7.00
2016,03,09,13,38,12.60
2016,03,09,13,39,11.50
2016,03,09,13,40,8.70
2016,03,09,13,41,16.70
2016,03,09,13,42,10.40
2016,03,09,13,43,5.10
2016,03,09,13,44,2.60
2016,03,09,13,45,3.80
2016,03,09,13,46,4.70
2016,03,09,13,47,3.30
2016,03,09,13,48,8.10
2016,03,09,13,49,6.90
2016,03,09,13,50,7.50
2016,03,09,13,51,8.50
2016,03,09,13,52,8.40
2016,03,09,13,53,10.40
2016,03,09,13,54,11.80
2016,03,09,13,55,7.80
2016,03,09,13,56,3.70
2016,03,09,13,57,8.70
2016,03,09,13,58,10.20
2016,03,09,13,59,8.00
2016,03,09,14,00,13.40
2016,03,09,14,01,12.40
2016,03,09,14,02,11.40
2016,03,09,14,03,10.90
2016,03,09,14,04,14.60
2016,03,09,14,05,9.40
2016,03,09,14,06,6.80
2016,03,09,14,07,10.70
2016,03,09,14,08,12.40
2016,03,09,14,09,12.60
2016,03,09,14,10,12.10
2016,03,09,14,11,13.10
2016,03,09,14,12,11.10
2016,03,09,14,13,3.60
2016,03,09,14,14,14.00
2016,03,09,14,15,12.60
2016,03,09,14,16,9.20
2016,03,09,14,17,9.70
2016,03,09,14,18,11.90
2016,03,09,14,19,15.70
2016,03,09,14,20,11.20
2016,03,09,14,21,7.80
2016,03,09,14,22,12.20
2016,03,09,14,23,11.60
2016,03,09,14,24,19.10
2016,03,09,14,25,12.70
2016,03,09,14,26,15.00
2016,03,09,14,27,16.50
2016,03,09,14,28,11.90
2016,03,09,14,29,9.10
2016,03,09,14,30,8.50
2016,03,09,14,31,7.60
2016,03,09,14,32,6.70
2016,03,09,14,33,15.60
2016,03,09,14,34,12.10
2016,03,09,14,35,10.70
2016,03,09,14,36,10.30
2016,03,09,14,37,8.50
2016,03,09,14,38,7.70
2016,03,09,14,39,13.40
2016,03,09,14,40,15.00
2016,03,09,14,41,15.70
2016,03,09,14,42,13.10
2016,03,09,14,43,13.30
2016,03,09,14,44,9.10
2016,03,09,14,45,10.10
2016,03,09,14,46,16.80
2016,03,09,14,47,11.40
2016,03,09,14,48,13.70
2016,03,09,14,49,12.40
2016,03,09,14,50,9.70
2016,03,09,14,51,16.00
2016,03,09,14,52,13.30
2016,03,09,14,53,8.80
2016,03,09,14,54,9.50
2016,03,09,14,55,9.90
2016,03,09,14,56,11.20
2016,03,09,14,57,4.10
2016,03,09,14,58,6.40
2016,03,09,14,59,7.10
2016,03,09,15,00,8.70
2016,03,09,15,01,5.20
2016,03,09,15,02,6.40
2016,03,09,15,03,7.80
2016,03,09,15,04,4.50
2016,03,09,15,05,3.10
2016,03,09,15,06,6.10
2016,03,09,15,07,8.10
2016,03,09,15,08,8.30
2016,03,09,15,09,11.10
2016,03,09,15,10,8.90
2016,03,09,15,11,5.70
2016,03,09,15,12,8.20
2016,03,09,15,13,6.10
2016,03,09,15,14,9.40
2016,03,09,15,15,6.80
2016,03,09,15,16,5.60
2016,03,09,15,17,10.70
2016,03,09,15,18,7.10
2016,03,09,15,19,8.60
2016,03,09,15,20,6.00
2016,03,09,15,21,8.50
2016,03,09,15,22,6.80
2016,03,09,15,23,3.50
2016,03,09,15,24,6.70
2016,03,09,15,25,9.30
2016,03,09,15,26,5.40
2016,03,09,15,27,7.30
2016,03,09,15,28,6.20
2016,03,09,15,29,3.90
2016,03,09,15,30,4.40
2016,03,09,15,31,2.90
2016,03,09,15,32,5.40
2016,03,09,15,33,2.80
2016,03,09,15,34,4.30
2016,03,09,15,35,7.70
2016,03,09,15,36,8.40
2016,03,09,15,37,5.40
2016,03,09,15,38,4.20
2016,03,09,15,39,8.80
2016,03,09,15,40,5.90
2016,03,09,15,41,5.00
2016,03,09,15,42,5.60
2016,03,09,15,43,5.80
2016,03,09,15,44,5.90
2016,03,09,15,45,4.30
2016,03,09,15,46,7.10
2016,03,09,15,47,6.20
2016,03,09,15,48,6.10
2016,03,09,15,49,6.40
2016,03,09,15,50,7.60
2016,03,09,15,51,9.80
2016,03,09,15,52,5.60
2016,03,09,15,53,4.90
2016,03,09,15,54,8.10
2016,03,09,15,55,10.30
2016,03,09,15,56,11.00
2016,03,09,15,57,8.80
2016,03,09,15,58,8.80
2016,03,09,15,59,8.10
2016,03,09,16,00,9.80
2016,03,09,16,01,9.00
2016,03,09,16,02,6.90
2016,03,09,16,03,4.70
2016,03,09,16,04,4.00
2016,03,09,16,05,9.00
2016,03,09,16,06,5.90
2016,03,09,16,07,10.10
2016,03,09,16,08,17.40
2016,03,09,16,09,14.50
2016,03,09,16,10,10.90
2016,03,09,16,11,10.80
2016,03,09,16,12,4.60
2016,03,09,16,13,13.60
2016,03,09,16,14,9.30
2016,03,09,16,15,6.40
2016,03,09,16,16,11.20
2016,03,09,16,17,7.20
2016,03,09,16,18,14.50
2016,03,09,16,19,10.50
2016,03,09,16,20,10.00
2016,03,09,16,21,10.30
2016,03,09,16,22,9.00
2016,03,09,16,23,6.40
2016,03,09,16,24,8.70
2016,03,09,16,25,11.30
2016,03,09,16,26,12.70
2016,03,09,16,27,13.30
2016,03,09,16,28,8.80
2016,03,09,16,29,14.00
2016,03,09,16,30,8.70
2016,03,09,16,31,7.40
2016,03,09,16,32,8.80
2016,03,09,16,33,6.80
2016,03,09,16,34,8.70
2016,03,09,16,35,12.10
2016,03,09,16,36,7.20
2016,03,09,16,37,4.40
2016,03,09,16,38,7.40
2016,03,09,16,39,17.00
2016,03,09,16,40,13.10
2016,03,09,16,41,13.00
2016,03,09,16,42,12.90
2016,03,09,16,43,13.30
2016,03,09,16,44,10.80
2016,03,09,16,45,12.60
2016,03,09,16,46,16.30
2016,03,09,16,47,8.80
2016,03,09,16,48,8.40
2016,03,09,16,49,6.00
2016,03,09,16,50,11.60
2016,03,09,16,51,10.60
2016,03,09,16,52,6.40
2016,03,09,16,53,7.70
2016,03,09,16,54,10.80
2016,03,09,16,55,12.90
2016,03,09,16,56,14.40
2016,03,09,16,57,11.00
2016,03,09,16,58,11.30
2016,03,09,16,59,10.10
2016,03,09,17,00,11.30
2016,03,09,17,01,9.30
2016,03,09,17,02,10.50
2016,03,09,17,03,12.80
2016,03,09,17,04,11.60
2016,03,09,17,05,9.70
2016,03,09,17,06,8.70
2016,03,09,17,07,16.30
2016,03,09,17,08,8.70
2016,03,09,17,09,10.00
2016,03,09,17,10,12.30
2016,03,09,17,11,15.30
2016,03,09,17,12,15.70
2016,03,09,17,13,13.80
2016,03,09,17,14,13.00
2016,03,09,17,15,12.90
2016,03,09,17,16,9.10
2016,03,09,17,17,13.90
2016,03,09,17,18,10.00
2016,03,09,17,19,20.40
2016,03,09,17,20,15.80
2016,03,09,17,21,15.70
2016,03,09,17,22,9.40
2016,03,09,17,23,15.80
2016,03,09,17,24,8.20
2016,03,09,17,25,9.70
2016,03,09,17,26,11.10
2016,03,09,17,27,10.30
2016,03,09,17,28,12.30
2016,03,09,17,29,5.50
2016,03,09,17,30,11.50
2016,03,09,17,31,5.70
2016,03,09,17,32,5.10
2016,03,09,17,33,5.80
2016,03,09,17,34,9.30
2016,03,09,17,35,6.00
2016,03,09,17,36,15.70
2016,03,09,17,37,12.20
2016,03,09,17,38,13.00
2016,03,09,17,39,12.60
2016,03,09,17,40,7.60
2016,03,09,17,41,11.90
2016,03,09,17,42,12.30
2016,03,09,17,43,10.00
2016,03,09,17,44,9.90
2016,03,09,17,45,7.40
2016,03,09,17,46,8.40
2016,03,09,17,47,10.30
2016,03,09,17,48,14.10
2016,03,09,17,49,10.60
2016,03,09,17,50,17.50
2016,03,09,17,51,13.60
2016,03,09,17,52,13.00
2016,03,09,17,53,14.30
2016,03,09,17,54,17.30
2016,03,09,17,55,17.00
2016,03,09,17,56,15.70
2016,03,09,17,57,11.90